Lid_Strength_Index
1 0 1 1 1 1 2 1 3 5 4 2 2 -0 -1 -0 -1 -2 -1 -2 -2 -1 -1 -1 -1 -2 -2 -2 -2 -2 -2 -2 -2 -2 -2 -3 -2 -2
1 0 1 1 1 1 0 2 2 2 4 2 1 -0 -0 -1 -1 -1 -1 -1 -1 -1 -1 -1 -1 -1 -2 -2 -1 -2 -2 -2 -2 -2 -2 -2 -2 -2
1 1 1 0 1 1 1 2 2 2 3 2 1 0 0 -0 -1 -1 -1 -1 -1 -0 -0 -0 0 -0 -1 -1 -1 -1 -1 -1 -2 -2 -2 -2 -1 -2
1 1 1 1 1 0 1 1 1 1 2 3 1 1 0 1 -0 -0 -0 -0 -1 -1 -0 0 0 0 1 1 1 1 1 1 0 -0 -1 -1 -2 -2
1 1 1 1 1 1 1 1 1 1 1 2 2 1 0 -0 -0 1 -0 -1 -0 -1 -0 0 1 1 1 2 2 3 3 3 3 2 2 1 0 -1
2 1 1 1 1 1 1 1 1 1 1 2 2 1 1 0 0 2 1 0 1 0 -0 0 0 0 1 2 2 2 2 3 3 3 3 3 2 1
1 1 1 2 1 1 1 1 1 1 2 2 2 2 2 2 2 1 2 2 0 -0 -0 -0 -0 -1 -1 0 0 -0 1 2 2 3 3 3 3 3
2 2 2 2 1 2 2 2 1 1 2 2 2 3 2 1 1 1 2 2 3 -0 0 1 0 -0 -1 -1 -0 -0 0 1 2 2 3 3 3 2
3 3 3 2 2 1 2 2 2 2 2 1 2 2 2 1 1 1 1 2 2 0 1 2 0 1 -1 -1 -0 -0 -1 -0 0 2 2 3 3 3
2 3 2 2 2 2 0 1 1 0 1 0 0 0 -0 -1 -0 0 1 1 1 0 0 3 0 1 -1 -1 -1 -1 -1 -0 -0 1 1 2 3 3
3 3 3 3 4 5 2 1 1 1 3 3 2 2 3 2 1 1 2 2 3 2 0 1 1 1 0 -0 -1 -1 -0 1 1 1 1 2 2 3
3 4 6 3 7 7 1 2 2 2 1 1 -0 1 2 1 2 -0 0 2 2 3 0 2 1 1 2 -0 -0 -0 -1 1 2 2 2 2 3 -1
4 4 4 7 8 8 5 1 1 1 2 1 1 1 2 2 2 0 -1 0 2 2 -0 0 1 1 1 2 1 -0 -1 -0 -1 -1 2 3 3 2
4 4 4 8 9 8 6 6 7 4 1 1 2 2 3 2 1 0 -1 -1 -1 -0 -1 -1 1 1 1 2 3 1 0 -0 -1 -0 -1 1 3 3
4 6 8 10 10 8 7 7 6 2 2 2 2 2 3 1 0 1 1 1 1 1 1 0 1 1 1 2 3 2 2 1 -0 -0 0 1 1 1
8 7 7 6 5 4 5 5 2 2 2 2 2 3 1 1 1 2 2 3 3 2 1 2 2 1 3 2 2 3 2 2 0 1 1 1 1 1
6 5 4 4 4 4 4 3 3 3 3 3 4 3 2 2 2 3 3 4 4 4 4 3 2 2 2 2 3 2 2 1 1 1 1 2 2 1
5 4 3 4 3 3 3 4 3 3 3 3 3 2 2 2 3 4 4 4 4 4 4 4 4 3 2 1 1 2 1 1 2 1 2 3 3 2
3 3 3 3 4 4 3 3 3 2 2 3 2 2 2 3 5 5 4 5 5 5 4 4 4 4 5 5 2 1 1 2 3 3 2 3 4 4
3 3 3 3 4 4 3 3 2 2 3 2 2 2 4 4 5 4 5 5 5 5 4 4 4 4 4 4 3 1 3 3 4 4 3 3 3 3
5 4 3 3 4 3 2 3 2 2 2 3 4 5 5 4 4 5 5 7 6 5 5 4 4 4 3 2 3 3 2 3 3 4 4 5 7 7
4 3 3 3 3 3 4 3 3 4 4 4 4 5 4 5 5 5 5 5 5 5 5 5 4 3 1 3 4 4 4 4 3 3 3 5 8 11
4 4 5 5 4 4 4 4 4 4 4 4 4 4 5 5 5 5 5 5 5 5 6 5 4 4 4 4 5 5 5 5 5 4 5 5 6 7